Dati Storici

Data ora Umidita' aria (%) Temperatura aria (°C) Rad globale (W/m²) Gonioanemometro (°) Tacoanemometro (m/s) Pioggia (mm)
05-06-2020 04:50 97.8 % 16.567 -76.778 1.68 0 0
05-06-2020 04:40 97.8 % 16.565 -75.546 1.501 0 0
05-06-2020 04:30 97.8 % 16.675 -77.908 0.817 0 0
05-06-2020 04:20 97.8 % 16.718 -74.976 1.368 0 0
05-06-2020 04:10 97.8 % 16.742 -73.882 1.228 0 0
05-06-2020 04:00 97.8 % 16.632 -70.826 0 0 0
05-06-2020 03:50 97.9 % 16.5 -71.72 0.67 0 0
05-06-2020 03:40 97.9 % 16.424 -69.679 0.002 0 0
05-06-2020 03:30 97.9 % 16.342 -68.31 0.004 0 0
05-06-2020 03:20 97.9 % 16.241 -60.353 0.416 0 0
05-06-2020 03:10 97.9 % 16.24 -58.21 0.527 0 0
05-06-2020 03:00 97.9 % 16.285 -68.164 0.008 0 0
05-06-2020 02:50 97.8 % 16.413 -61.117 1.408 0 0
05-06-2020 02:40 97.8 % 16.613 -57.445 0.967 0 0
05-06-2020 02:30 97.8 % 16.987 -61.185 0.017 0 0
05-06-2020 02:20 97.8 % 17.304 -51.988 0.742 0 0
05-06-2020 02:10 97.8 % 17.557 -66.992 1.243 0 0
05-06-2020 02:00 97.8 % 17.431 -73.443 0.569 0 0
05-06-2020 01:50 97.8 % 17.265 -67.674 1.943 0 0
05-06-2020 01:40 97.8 % 17.289 -60.613 0.609 0 0

I dati sono presentati in modo automatico a scopo informativo. In seguito a verifica i dati possono subire modifiche o essere invalidati e non riportati negli archivi definitivi.